sat.trackr.live / text

‹ back to catalog

STARLINK-11270 [DTC]

NORAD 60999 · 2024-158K

PAYLOAD ACTIVE UNKNOWN

§ Identity

Operator
Country
US
Launch date
2024-09-05
Launch site
AFETR
Launch vehicle
Mass (kg)
RCS (m²)

Purposes: comms

External: N2YO · Heavens-Above · Gunter

§ Orbital elements

Epoch: 2026-09-21T20:30:59.690592Z

Period
91.73 min
Inclination
53.1577°
Eccentricity
0.0000994
Mean motion
15.69754250 rev/d
Perigee alt
358.9 km
Apogee alt
360.3 km
Semi-major
6,737.7 km
B*
8.8557e-4
RAAN
34.3098°
Arg perigee
72.2668°
Mean anomaly
287.8458°
Rev number
11,839

§ Raw data

STARLINK-11270 [DTC]1 60999U 24158K   26264.85485753  .00108305  00000+0  88557-3 0  99902 60999  53.1577  34.3098 0000994  72.2668 287.8458 15.69754250118391

JSON: /api/v1/satellites/60999 · /tle

For live sub-satellite position, see the globe view (requires WebGL).

§ Visibility from observer

Set your observer location to see the next 7 days of passes ≥ 10°. The values pass through the URL so the page stays shareable.

No JS? Fill the form by hand. The geolocation button needs JavaScript.